| time (UTC) | temp C | wind direction | speed KPH | gust KPH | rain 1hr cm | rain 24hr cm | rain mn cm | humidity % | barometer mb |
| 20260831115506 | 11 | 231 | 16.1 | 27.4 | 0.00 | 0.28 | 0.00 | 45 | 1010.7 |
| 20260831115006 | 11 | 235 | 16.1 | 22.5 | 0.00 | 0.30 | 0.00 | 45 | 1010.7 |
| 20260831114506 | 11 | 236 | 16.1 | 22.5 | 0.00 | 0.30 | 0.00 | 46 | 1010.8 |
| 20260831114006 | 11 | 234 | 16.1 | 22.5 | 0.00 | 0.30 | 0.00 | 46 | 1010.8 |
| 20260831113506 | 11 | 231 | 16.1 | 20.9 | 0.00 | 0.30 | 0.00 | 47 | 1010.8 |
| 20260831113005 | 11 | 233 | 16.1 | 22.5 | 0.00 | 0.30 | 0.00 | 47 | 1010.8 |
| 20260831112506 | 11 | 229 | 16.1 | 22.5 | 0.00 | 0.30 | 0.00 | 47 | 1010.8 |
| 20260831112005 | 11 | 229 | 14.5 | 20.9 | 0.00 | 0.30 | 0.00 | 47 | 1010.7 |
| 20260831111505 | 11 | 226 | 14.5 | 20.9 | 0.00 | 0.30 | 0.00 | 47 | 1010.8 |
| 20260831111005 | 11 | 227 | 12.9 | 20.9 | 0.00 | 0.30 | 0.00 | 47 | 1010.8 |
| 20260831110005 | 11 | 232 | 14.5 | 19.3 | 0.00 | 0.30 | 0.00 | 47 | 1010.9 |
| 20260831105506 | 11 | 232 | 14.5 | 19.3 | 0.00 | 0.30 | 0.00 | 46 | 1010.9 |
| 20260831105006 | 11 | 228 | 12.9 | 20.9 | 0.00 | 0.30 | 0.00 | 46 | 1010.8 |
| 20260831104505 | 11 | 228 | 14.5 | 22.5 | 0.00 | 0.30 | 0.00 | 46 | 1010.8 |
| 20260831104005 | 11 | 230 | 16.1 | 25.7 | 0.00 | 0.30 | 0.00 | 46 | 1010.8 |
| 20260831103005 | 11 | 232 | 16.1 | 25.7 | 0.00 | 0.30 | 0.00 | 46 | 1010.7 |
| 20260831102505 | 11 | 231 | 14.5 | 22.5 | 0.00 | 0.30 | 0.00 | 46 | 1010.7 |
| 20260831101505 | 11 | 231 | 14.5 | 20.9 | 0.00 | 0.30 | 0.00 | 48 | 1010.8 |
| 20260831101006 | 11 | 225 | 12.9 | 20.9 | 0.00 | 0.30 | 0.00 | 48 | 1010.7 |
| 20260831100005 | 11 | 231 | 11.3 | 19.3 | 0.00 | 0.30 | 0.00 | 48 | 1010.7 |
| 20260831095506 | 11 | 212 | 11.3 | 19.3 | 0.00 | 0.30 | 0.00 | 48 | 1010.7 |
| 20260831095006 | 11 | 229 | 11.3 | 19.3 | 0.00 | 0.30 | 0.00 | 48 | 1010.7 |
| 20260831094506 | 11 | 231 | 11.3 | 19.3 | 0.00 | 0.30 | 0.00 | 48 | 1010.7 |
| 20260831094005 | 11 | 231 | 11.3 | 19.3 | 0.00 | 0.30 | 0.00 | 48 | 1010.7 |
| 20260831093505 | 11 | 231 | 11.3 | 19.3 | 0.00 | 0.30 | 0.00 | 48 | 1010.7 |
| 20260831093005 | 11 | 233 | 11.3 | 19.3 | 0.00 | 0.30 | 0.00 | 48 | 1010.7 |
| 20260831092506 | 11 | 231 | 11.3 | 19.3 | 0.00 | 0.30 | 0.00 | 48 | 1010.8 |
| 20260831092006 | 11 | 230 | 11.3 | 16.1 | 0.00 | 0.30 | 0.00 | 48 | 1010.7 |
| 20260831091505 | 11 | 222 | 9.7 | 16.1 | 0.00 | 0.30 | 0.00 | 48 | 1010.7 |
| 20260831090005 | 11 | 229 | 9.7 | 16.1 | 0.00 | 0.30 | 0.00 | 49 | 1010.7 |
| 20260831085505 | 11 | 210 | 9.7 | 16.1 | 0.00 | 0.30 | 0.00 | 49 | 1010.8 |
| 20260831085005 | 11 | 205 | 11.3 | 19.3 | 0.00 | 0.30 | 0.00 | 50 | 1010.7 |
| 20260831084506 | 11 | 206 | 12.9 | 19.3 | 0.00 | 0.30 | 0.00 | 50 | 1010.7 |
| 20260831083006 | 11 | 213 | 8.0 | 14.5 | 0.00 | 0.30 | 0.00 | 49 | 1010.7 |
| 20260831082506 | 11 | 207 | 8.0 | 16.1 | 0.00 | 0.30 | 0.00 | 49 | 1010.7 |
| 20260831082006 | 11 | 202 | 9.7 | 16.1 | 0.00 | 0.30 | 0.00 | 49 | 1010.7 |
| 20260831081506 | 11 | 200 | 9.7 | 14.5 | 0.00 | 0.30 | 0.00 | 48 | 1010.7 |
| 20260831081006 | 12 | 220 | 6.4 | 14.5 | 0.00 | 0.30 | 0.00 | 47 | 1010.7 |
| 20260831080006 | 12 | 218 | 8.0 | 14.5 | 0.00 | 0.30 | 0.00 | 47 | 1010.6 |
| 20260831075505 | 12 | 213 | 8.0 | 14.5 | 0.00 | 0.30 | 0.00 | 48 | 1010.6 |
| 20260831075006 | 12 | 197 | 8.0 | 14.5 | 0.00 | 0.30 | 0.00 | 47 | 1010.5 |
| 20260831074505 | 12 | 202 | 6.4 | 14.5 | 0.00 | 0.30 | 0.00 | 48 | 1010.4 |
| 20260831074006 | 12 | 217 | 8.0 | 16.1 | 0.00 | 0.30 | 0.00 | 48 | 1010.4 |
| 20260831073505 | 12 | 202 | 11.3 | 16.1 | 0.00 | 0.30 | 0.00 | 48 | 1010.4 |
| 20260831072505 | 12 | 199 | 9.7 | 16.1 | 0.00 | 0.30 | 0.00 | 48 | 1010.3 |
| 20260831072006 | 12 | 207 | 8.0 | 12.9 | 0.00 | 0.30 | 0.00 | 48 | 1010.3 |
| 20260831071505 | 12 | 206 | 9.7 | 14.5 | 0.00 | 0.30 | 0.00 | 47 | 1010.3 |
| 20260831071005 | 12 | 205 | 9.7 | 14.5 | 0.00 | 0.30 | 0.00 | 48 | 1010.2 |
| 20260831070005 | 12 | 201 | 11.3 | 19.3 | 0.00 | 0.30 | 0.00 | 48 | 1010.1 |
| 20260831065505 | 12 | 196 | 14.5 | 16.1 | 0.00 | 0.30 | 0.00 | 47 | 1010.0 |
| 20260831065005 | 12 | 211 | 8.0 | 16.1 | 0.00 | 0.30 | 0.00 | 46 | 1010.0 |
| 20260831064505 | 12 | 230 | 9.7 | 14.5 | 0.00 | 0.30 | 0.00 | 46 | 1009.9 |
| 20260831064005 | 12 | 229 | 9.7 | 11.3 | 0.00 | 0.30 | 0.00 | 47 | 1009.8 |
| 20260831063505 | 12 | 223 | 8.0 | 11.3 | 0.00 | 0.30 | 0.00 | 48 | 1009.8 |
| 20260831063005 | 12 | 222 | 8.0 | 16.1 | 0.00 | 0.30 | 0.00 | 48 | 1009.8 |
| 20260831062005 | 12 | 204 | 9.7 | 16.1 | 0.00 | 0.30 | 0.00 | 47 | 1009.7 |
| 20260831061505 | 12 | 201 | 12.9 | 16.1 | 0.00 | 0.30 | 0.00 | 47 | 1009.6 |
| 20260831061006 | 13 | 205 | 9.7 | 16.1 | 0.00 | 0.30 | 0.00 | 46 | 1009.5 |
| 20260831060006 | 13 | 217 | 9.7 | 14.5 | 0.00 | 0.30 | 0.00 | 46 | 1009.3 |
| 20260831055505 | 13 | 226 | 9.7 | 16.1 | 0.00 | 0.30 | 0.30 | 46 | 1009.2 |
| 20260831055006 | 13 | 218 | 9.7 | 16.1 | 0.00 | 0.30 | 0.30 | 46 | 1009.2 |
| 20260831054505 | 13 | 208 | 9.7 | 16.1 | 0.00 | 0.30 | 0.30 | 46 | 1009.1 |
| 20260831054005 | 13 | 218 | 9.7 | 16.1 | 0.00 | 0.30 | 0.30 | 46 | 1009.1 |
| 20260831053505 | 13 | 218 | 9.7 | 16.1 | 0.00 | 0.30 | 0.30 | 47 | 1009.1 |
| 20260831053006 | 13 | 216 | 8.0 | 14.5 | 0.00 | 0.30 | 0.30 | 47 | 1009.0 |
| 20260831052505 | 13 | 213 | 9.7 | 16.1 | 0.00 | 0.30 | 0.30 | 47 | 1009.0 |
| 20260831052005 | 13 | 229 | 9.7 | 16.1 | 0.00 | 0.30 | 0.30 | 46 | 1009.1 |
| 20260831051005 | 13 | 208 | 8.0 | 12.9 | 0.00 | 0.33 | 0.30 | 46 | 1009.1 |
| 20260831050005 | 13 | 233 | 8.0 | 12.9 | 0.00 | 0.33 | 0.30 | 43 | 1009.1 |
| 20260831045505 | 13 | 227 | 8.0 | 14.5 | 0.00 | 0.33 | 0.30 | 43 | 1009.1 |
| 20260831045005 | 13 | 203 | 8.0 | 14.5 | 0.00 | 0.33 | 0.30 | 43 | 1009.1 |
| 20260831044505 | 13 | 200 | 9.7 | 16.1 | 0.00 | 0.33 | 0.30 | 42 | 1009.0 |
| 20260831043505 | 14 | 198 | 9.7 | 14.5 | 0.00 | 0.33 | 0.30 | 40 | 1009.1 |
| 20260831043005 | 14 | 205 | 4.8 | 11.3 | 0.00 | 0.33 | 0.30 | 38 | 1009.1 |
| 20260831042005 | 14 | 199 | 8.0 | 16.1 | 0.00 | 0.33 | 0.30 | 38 | 1008.9 |
| 20260831041505 | 14 | 184 | 6.4 | 19.3 | 0.00 | 0.33 | 0.30 | 39 | 1008.9 |
| 20260831040005 | 15 | 190 | 8.0 | 9.7 | 0.00 | 0.33 | 0.30 | 38 | 1008.7 |
| 20260831035505 | 15 | 201 | 4.8 | 12.9 | 0.00 | 0.33 | 0.30 | 37 | 1008.6 |
| 20260831035005 | 15 | 199 | 4.8 | 12.9 | 0.00 | 0.33 | 0.30 | 37 | 1008.7 |
| 20260831034505 | 15 | 194 | 9.7 | 19.3 | 0.00 | 0.33 | 0.30 | 38 | 1008.7 |
| 20260831034005 | 15 | 184 | 11.3 | 19.3 | 0.00 | 0.33 | 0.30 | 39 | 1008.7 |
| 20260831033505 | 15 | 182 | 11.3 | 14.5 | 0.00 | 0.33 | 0.30 | 40 | 1008.6 |
| 20260831033005 | 15 | 196 | 8.0 | 12.9 | 0.00 | 0.33 | 0.30 | 39 | 1008.5 |
| 20260831032505 | 15 | 192 | 8.0 | 12.9 | 0.00 | 0.33 | 0.30 | 40 | 1008.5 |
| 20260831032005 | 15 | 226 | 8.0 | 14.5 | 0.00 | 0.33 | 0.30 | 39 | 1008.5 |
| 20260831031505 | 15 | 209 | 4.8 | 14.5 | 0.00 | 0.33 | 0.30 | 40 | 1008.4 |
| 20260831031005 | 15 | 201 | 9.7 | 14.5 | 0.00 | 0.33 | 0.30 | 40 | 1008.4 |
| 20260831030005 | 16 | 228 | 8.0 | 9.7 | 0.00 | 0.33 | 0.30 | 38 | 1008.3 |
| 20260831025505 | 16 | 230 | 4.8 | 9.7 | 0.00 | 0.33 | 0.30 | 38 | 1008.1 |
| 20260831025006 | 16 | 230 | 8.0 | 9.7 | 0.00 | 0.33 | 0.30 | 37 | 1008.0 |
| 20260831024506 | 16 | 230 | 4.8 | 9.7 | 0.00 | 0.33 | 0.30 | 37 | 1008.0 |
| 20260831024005 | 16 | 228 | 4.8 | 12.9 | 0.00 | 0.33 | 0.30 | 37 | 1007.9 |
| 20260831023505 | 16 | 200 | 8.0 | 12.9 | 0.00 | 0.33 | 0.30 | 36 | 1007.8 |
| 20260831023006 | 16 | 201 | 8.0 | 11.3 | 0.00 | 0.33 | 0.30 | 36 | 1007.7 |
| 20260831022504 | 17 | 229 | 8.0 | 14.5 | 0.00 | 0.33 | 0.30 | 34 | 1007.6 |
| 20260831022005 | 17 | 229 | 6.4 | 19.3 | 0.00 | 0.33 | 0.30 | 34 | 1007.5 |
| 20260831021505 | 17 | 239 | 11.3 | 20.9 | 0.00 | 0.33 | 0.30 | 33 | 1007.6 |
| 20260831021006 | 17 | 251 | 14.5 | 20.9 | 0.00 | 0.33 | 0.30 | 32 | 1007.4 |
| 20260831015505 | 18 | 270 | 16.1 | 25.7 | 0.00 | 0.33 | 0.30 | 29 | 1007.4 |
| 20260831015006 | 18 | 267 | 16.1 | 22.5 | 0.00 | 0.33 | 0.30 | 29 | 1007.3 |
| 20260831014505 | 18 | 261 | 12.9 | 22.5 | 0.00 | 0.33 | 0.30 | 29 | 1007.3 |
| 20260831013505 | 18 | 259 | 19.3 | 25.7 | 0.00 | 0.33 | 0.30 | 29 | 1007.3 |
| 20260831013005 | 18 | 259 | 17.7 | 25.7 | 0.00 | 0.33 | 0.30 | 29 | 1007.3 |
| 20260831012505 | 19 | 265 | 17.7 | 24.1 | 0.00 | 0.33 | 0.30 | 29 | 1007.3 |
| 20260831011505 | 19 | 268 | 19.3 | 24.1 | 0.00 | 0.33 | 0.30 | 28 | 1007.3 |
| 20260831011005 | 19 | 263 | 14.5 | 29.0 | 0.00 | 0.33 | 0.30 | 29 | 1007.4 |
| 20260831010005 | 19 | 272 | 19.3 | 29.0 | 0.00 | 0.33 | 0.30 | 29 | 1007.4 |
| 20260831005505 | 19 | 277 | 16.1 | 27.4 | 0.00 | 0.33 | 0.30 | 31 | 1007.3 |
| 20260831004505 | 19 | 283 | 16.1 | 32.2 | 0.00 | 0.33 | 0.30 | 32 | 1007.3 |
| 20260831004005 | 19 | 294 | 19.3 | 32.2 | 0.00 | 0.33 | 0.30 | 31 | 1007.3 |
| 20260831003505 | 19 | 285 | 19.3 | 32.2 | 0.00 | 0.38 | 0.30 | 31 | 1007.1 |
| 20260831003005 | 20 | 278 | 16.1 | 32.2 | 0.00 | 0.53 | 0.30 | 31 | 1007.1 |
| 20260831002505 | 20 | 287 | 19.3 | 32.2 | 0.00 | 0.58 | 0.30 | 31 | 1007.1 |
| 20260831002006 | 20 | 281 | 19.3 | 29.0 | 0.00 | 0.58 | 0.30 | 30 | 1007.1 |
| 20260831001505 | 20 | 286 | 22.5 | 32.2 | 0.00 | 0.58 | 0.30 | 29 | 1007.0 |
| 20260831001005 | 21 | 272 | 22.5 | 32.2 | 0.00 | 0.58 | 0.30 | 29 | 1007.1 |
| 20260831000005 | 21 | 281 | 22.5 | 38.6 | 0.00 | 0.58 | 0.30 | 29 | 1007.0 |
| 20260830235505 | 21 | 282 | 27.4 | 35.4 | 0.00 | 0.58 | 0.30 | 28 | 1006.9 |
| 20260830235005 | 21 | 284 | 19.3 | 35.4 | 0.00 | 0.58 | 0.30 | 29 | 1006.8 |
| 20260830234505 | 21 | 274 | 22.5 | 41.8 | 0.00 | 0.58 | 0.30 | 29 | 1006.9 |
| 20260830234005 | 21 | 286 | 25.7 | 41.8 | 0.00 | 0.58 | 0.30 | 28 | 1007.0 |
| 20260830233505 | 21 | 276 | 29.0 | 41.8 | 0.00 | 0.58 | 0.30 | 27 | 1006.9 |
| 20260830233005 | 21 | 273 | 25.7 | 41.8 | 0.00 | 0.58 | 0.30 | 28 | 1006.9 |
| 20260830232505 | 21 | 289 | 27.4 | 38.6 | 0.00 | 0.58 | 0.30 | 28 | 1006.8 |
| 20260830232006 | 21 | 270 | 27.4 | 41.8 | 0.00 | 0.58 | 0.30 | 27 | 1006.8 |
| 20260830231505 | 21 | 275 | 29.0 | 41.8 | 0.00 | 0.58 | 0.30 | 28 | 1006.8 |
| 20260830231005 | 21 | 275 | 27.4 | 40.2 | 0.00 | 0.58 | 0.30 | 28 | 1006.9 |
| 20260830230005 | 21 | 274 | 24.1 | 35.4 | 0.00 | 0.58 | 0.30 | 29 | 1006.9 |
| 20260830224505 | 21 | 284 | 22.5 | 40.2 | 0.00 | 0.58 | 0.30 | 30 | 1006.9 |
| 20260830224005 | 21 | 264 | 25.7 | 40.2 | 0.00 | 0.58 | 0.30 | 28 | 1007.0 |
| 20260830223505 | 21 | 280 | 22.5 | 37.0 | 0.00 | 0.58 | 0.30 | 28 | 1006.9 |
| 20260830223005 | 20 | 299 | 24.1 | 38.6 | 0.00 | 0.58 | 0.30 | 29 | 1006.9 |
| 20260830222505 | 20 | 298 | 20.9 | 38.6 | 0.00 | 0.58 | 0.30 | 30 | 1006.9 |
| 20260830222005 | 20 | 283 | 22.5 | 41.8 | 0.00 | 0.58 | 0.30 | 29 | 1006.9 |
| 20260830221505 | 20 | 278 | 25.7 | 41.8 | 0.00 | 0.58 | 0.30 | 30 | 1007.0 |
| 20260830220005 | 20 | 292 | 19.3 | 32.2 | 0.00 | 0.58 | 0.30 | 32 | 1007.2 |
| 20260830215505 | 20 | 280 | 20.9 | 32.2 | 0.00 | 0.58 | 0.30 | 32 | 1007.3 |
| 20260830215005 | 20 | 287 | 19.3 | 32.2 | 0.00 | 0.58 | 0.30 | 34 | 1007.3 |
| 20260830214005 | 20 | 297 | 19.3 | 40.2 | 0.00 | 0.58 | 0.30 | 35 | 1007.3 |
| 20260830213505 | 20 | 297 | 24.1 | 40.2 | 0.00 | 0.58 | 0.30 | 35 | 1007.5 |
| 20260830213005 | 20 | 286 | 22.5 | 41.8 | 0.00 | 0.58 | 0.30 | 34 | 1007.6 |
| 20260830212505 | 20 | 287 | 22.5 | 41.8 | 0.00 | 0.58 | 0.30 | 35 | 1007.7 |
| 20260830212005 | 20 | 283 | 22.5 | 40.2 | 0.00 | 0.58 | 0.30 | 36 | 1007.8 |
| 20260830211504 | 19 | 300 | 22.5 | 37.0 | 0.00 | 0.58 | 0.30 | 36 | 1007.7 |
| 20260830211005 | 19 | 298 | 24.1 | 38.6 | 0.00 | 0.58 | 0.30 | 36 | 1007.6 |
| 20260830210005 | 19 | 295 | 27.4 | 41.8 | 0.00 | 0.58 | 0.30 | 36 | 1007.7 |
| 20260830205504 | 19 | 279 | 22.5 | 35.4 | 0.00 | 0.58 | 0.30 | 37 | 1007.7 |
| 20260830205004 | 19 | 284 | 24.1 | 33.8 | 0.00 | 0.58 | 0.30 | 39 | 1007.6 |
| 20260830204505 | 19 | 276 | 19.3 | 33.8 | 0.00 | 0.58 | 0.30 | 43 | 1007.6 |
| 20260830204004 | 18 | 283 | 17.7 | 32.2 | 0.00 | 0.58 | 0.30 | 44 | 1007.6 |
| 20260830203505 | 18 | 284 | 22.5 | 32.2 | 0.00 | 0.58 | 0.30 | 43 | 1007.7 |
| 20260830203005 | 18 | 293 | 19.3 | 32.2 | 0.00 | 0.58 | 0.30 | 45 | 1007.7 |
| 20260830202005 | 18 | 276 | 19.3 | 35.4 | 0.00 | 0.58 | 0.30 | 47 | 1007.6 |
| 20260830201504 | 18 | 261 | 25.7 | 38.6 | 0.00 | 0.58 | 0.30 | 45 | 1007.6 |
| 20260830201005 | 18 | 272 | 20.9 | 38.6 | 0.00 | 0.58 | 0.30 | 46 | 1007.5 |
| 20260830195505 | 17 | 263 | 20.9 | 33.8 | 0.00 | 0.58 | 0.30 | 51 | 1007.3 |
| 20260830195005 | 17 | 274 | 20.9 | 33.8 | 0.00 | 0.58 | 0.30 | 52 | 1007.5 |
| 20260830194504 | 17 | 257 | 22.5 | 33.8 | 0.00 | 0.58 | 0.30 | 52 | 1007.4 |
| 20260830194005 | 17 | 276 | 22.5 | 32.2 | 0.00 | 0.58 | 0.30 | 53 | 1007.5 |
| 20260830193504 | 17 | 277 | 19.3 | 32.2 | 0.00 | 0.58 | 0.30 | 54 | 1007.6 |
| 20260830193004 | 17 | 274 | 20.9 | 33.8 | 0.00 | 0.58 | 0.30 | 53 | 1007.7 |
| 20260830192505 | 17 | 270 | 20.9 | 33.8 | 0.00 | 0.58 | 0.30 | 55 | 1007.7 |
| 20260830192004 | 16 | 285 | 20.9 | 35.4 | 0.00 | 0.58 | 0.30 | 57 | 1007.7 |
| 20260830191504 | 16 | 277 | 25.7 | 35.4 | 0.00 | 0.58 | 0.30 | 56 | 1007.7 |
| 20260830191005 | 16 | 273 | 25.7 | 35.4 | 0.00 | 0.58 | 0.30 | 55 | 1007.7 |
| 20260830190005 | 16 | 271 | 22.5 | 33.8 | 0.00 | 0.58 | 0.30 | 57 | 1007.5 |
| 20260830185504 | 16 | 273 | 20.9 | 38.6 | 0.00 | 0.58 | 0.30 | 59 | 1007.5 |
| 20260830184504 | 16 | 270 | 27.4 | 37.0 | 0.00 | 0.58 | 0.30 | 58 | 1007.8 |
| 20260830183505 | 15 | 271 | 22.5 | 38.6 | 0.00 | 0.58 | 0.30 | 59 | 1007.6 |
| 20260830183005 | 15 | 271 | 25.7 | 38.6 | 0.00 | 0.58 | 0.30 | 61 | 1007.6 |
| 20260830182504 | 15 | 276 | 22.5 | 37.0 | 0.00 | 0.58 | 0.30 | 61 | 1007.6 |
| 20260830182005 | 15 | 281 | 25.7 | 37.0 | 0.00 | 0.58 | 0.30 | 63 | 1007.6 |
| 20260830181504 | 15 | 274 | 25.7 | 35.4 | 0.00 | 0.58 | 0.30 | 62 | 1007.6 |
| 20260830181005 | 15 | 263 | 19.3 | 33.8 | 0.00 | 0.58 | 0.30 | 66 | 1007.7 |
| 20260830180005 | 15 | 270 | 22.5 | 38.6 | 0.00 | 0.58 | 0.30 | 65 | 1007.9 |
| 20260830175505 | 14 | 265 | 24.1 | 35.4 | 0.00 | 0.58 | 0.30 | 65 | 1007.8 |
| 20260830175004 | 14 | 275 | 24.1 | 32.2 | 0.00 | 0.58 | 0.30 | 66 | 1007.7 |
| 20260830174505 | 14 | 268 | 20.9 | 37.0 | 0.00 | 0.58 | 0.30 | 69 | 1007.7 |
| 20260830174005 | 13 | 279 | 22.5 | 37.0 | 0.00 | 0.58 | 0.30 | 70 | 1007.9 |
| 20260830173504 | 13 | 284 | 22.5 | 32.2 | 0.00 | 0.58 | 0.30 | 72 | 1007.9 |
| 20260830172005 | 12 | 292 | 19.3 | 27.4 | 0.00 | 0.58 | 0.30 | 74 | 1007.9 |
| 20260830171505 | 12 | 284 | 19.3 | 27.4 | 0.00 | 0.58 | 0.30 | 77 | 1008.2 |
| 20260830171005 | 12 | 281 | 19.3 | 29.0 | 0.00 | 0.58 | 0.30 | 77 | 1008.2 |
| 20260830170005 | 12 | 271 | 19.3 | 29.0 | 0.00 | 0.58 | 0.30 | 77 | 1008.1 |
| 20260830165004 | 11 | 250 | 14.5 | 25.7 | 0.00 | 0.58 | 0.30 | 81 | 1008.2 |
| 20260830164505 | 11 | 255 | 12.9 | 19.3 | 0.00 | 0.58 | 0.30 | 82 | 1008.1 |
| 20260830164005 | 11 | 241 | 8.0 | 16.1 | 0.00 | 0.58 | 0.30 | 83 | 1007.9 |
| 20260830163505 | 11 | 239 | 11.3 | 16.1 | 0.00 | 0.58 | 0.30 | 83 | 1007.8 |
| 20260830163004 | 11 | 240 | 8.0 | 14.5 | 0.00 | 0.58 | 0.30 | 84 | 1007.7 |
| 20260830162504 | 11 | 261 | 6.4 | 14.5 | 0.00 | 0.58 | 0.30 | 85 | 1007.8 |
| 20260830161505 | 11 | 242 | 1.6 | 12.9 | 0.00 | 0.58 | 0.30 | 88 | 1007.7 |
| 20260830161005 | 11 | 245 | 6.4 | 12.9 | 0.00 | 0.58 | 0.30 | 88 | 1007.5 |
| 20260830160005 | 11 | 315 | 9.7 | 19.3 | 0.00 | 0.58 | 0.30 | 87 | 1007.3 |
| 20260830155504 | 11 | 319 | 11.3 | 25.7 | 0.00 | 0.58 | 0.30 | 86 | 1006.6 |
| 20260830155005 | 11 | 278 | 16.1 | 25.7 | 0.00 | 0.58 | 0.30 | 83 | 1006.8 |
| 20260830154504 | 11 | 278 | 11.3 | 25.7 | 0.00 | 0.58 | 0.30 | 84 | 1006.5 |
| 20260830154005 | 11 | 239 | 4.8 | 24.1 | 0.00 | 0.58 | 0.30 | 83 | 1005.7 |
| 20260830153504 | 11 | 193 | 11.3 | 27.4 | 0.03 | 0.58 | 0.30 | 84 | 1005.4 |
| 20260830152005 | 10 | 241 | 3.2 | 12.9 | 0.18 | 0.58 | 0.30 | 88 | 1006.3 |
| 20260830151504 | 10 | 298 | 4.8 | 12.9 | 0.20 | 0.58 | 0.30 | 89 | 1006.7 |
| 20260830151004 | 10 | 286 | 8.0 | 12.9 | 0.23 | 0.58 | 0.30 | 89 | 1006.9 |
| 20260830150004 | 10 | 190 | 8.0 | 19.3 | 0.28 | 0.58 | 0.30 | 90 | 1006.5 |
| 20260830145505 | 10 | 192 | 11.3 | 19.3 | 0.28 | 0.58 | 0.30 | 90 | 1006.8 |
| 20260830145004 | 10 | 178 | 11.3 | 19.3 | 0.28 | 0.58 | 0.30 | 89 | 1006.9 |
| 20260830144504 | 10 | 203 | 14.5 | 25.7 | 0.28 | 0.58 | 0.30 | 89 | 1007.1 |
| 20260830144005 | 10 | 247 | 8.0 | 33.8 | 0.28 | 0.58 | 0.30 | 88 | 1006.8 |
| 20260830143504 | 10 | 257 | 20.9 | 37.0 | 0.25 | 0.56 | 0.28 | 87 | 1007.5 |
| 20260830143005 | 10 | 256 | 24.1 | 37.0 | 0.20 | 0.51 | 0.23 | 86 | 1007.8 |
| 20260830142504 | 10 | 262 | 24.1 | 45.1 | 0.15 | 0.46 | 0.18 | 86 | 1007.8 |
| 20260830142005 | 10 | 261 | 29.0 | 45.1 | 0.10 | 0.41 | 0.13 | 84 | 1007.8 |
| 20260830141505 | 10 | 253 | 35.4 | 45.1 | 0.08 | 0.38 | 0.10 | 82 | 1007.6 |
| 20260830141005 | 10 | 252 | 29.0 | 41.8 | 0.05 | 0.36 | 0.08 | 82 | 1007.4 |
| 20260830140005 | 12 | 278 | 29.0 | 46.7 | 0.00 | 0.30 | 0.03 | 75 | 1006.9 |
| 20260830135509 | 13 | 270 | 30.6 | 41.8 | 0.00 | 0.30 | 0.03 | 69 | 1006.9 |
| 20260830134005 | 13 | 231 | 8.0 | 12.9 | 0.00 | 0.33 | 0.03 | 74 | 1006.0 |
| 20260830133505 | 12 | 229 | 8.0 | 14.5 | 0.00 | 0.33 | 0.03 | 75 | 1005.9 |
| 20260830133004 | 12 | 188 | 4.8 | 14.5 | 0.00 | 0.38 | 0.03 | 76 | 1006.0 |
| 20260830132505 | 12 | 173 | 9.7 | 14.5 | 0.00 | 0.38 | 0.03 | 75 | 1005.9 |
| 20260830132005 | 12 | 186 | 9.7 | 14.5 | 0.00 | 0.41 | 0.03 | 76 | 1006.0 |
| 20260830131504 | 12 | 198 | 11.3 | 14.5 | 0.00 | 0.43 | 0.03 | 76 | 1006.1 |
| 20260830131004 | 12 | 197 | 8.0 | 9.7 | 0.00 | 0.46 | 0.03 | 76 | 1006.1 |
| 20260830125504 | 12 | 203 | 4.8 | 11.3 | 0.00 | 0.48 | 0.03 | 76 | 1005.8 |
| 20260830125004 | 12 | 215 | 8.0 | 14.5 | 0.03 | 0.48 | 0.03 | 76 | 1005.9 |
| 20260830124005 | 12 | 242 | 8.0 | 16.1 | 0.03 | 0.48 | 0.03 | 77 | 1005.7 |
| 20260830123505 | 12 | 241 | 9.7 | 14.5 | 0.03 | 0.48 | 0.03 | 78 | 1005.7 |
| 20260830123005 | 12 | 237 | 8.0 | 14.5 | 0.03 | 0.48 | 0.03 | 78 | 1005.7 |
| 20260830122505 | 12 | 228 | 8.0 | 14.5 | 0.03 | 0.48 | 0.03 | 78 | 1005.8 |
| 20260830122004 | 12 | 207 | 8.0 | 16.1 | 0.03 | 0.48 | 0.03 | 77 | 1005.6 |
| 20260830121005 | 12 | 225 | 9.7 | 22.5 | 0.03 | 0.48 | 0.03 | 78 | 1005.7 |
| 20260830120004 | 13 | 230 | 11.3 | 20.9 | 0.03 | 0.48 | 0.03 | 78 | 1005.5 |